Flag for Brazil Weather past 2 weeks in Cuiabá, Mato Grosso, Brazil

Now
73 °F

Sunny.


Feels Like: 70 °F
Forecast: 74 / 89 °F
Wind: No wind

Location: Cuiaba Aeroporto

Current Time: Apr 27, 2015 at 6:58:41 AM

Latest Report: Apr 27, 2015 at 6:00 AM


Visibility: 10 mi

Pressure: 29.92 "Hg

Humidity: 94%

Dew point: 72 °F

Location of CuiabáLocation

Historic Weather in Cuiabá — Graph

°F

Cuiabá temperature yesterday

Maximum temperature yesterday: 91 °F (at 2:00 PM)
Minimum temperature yesterday: 75 °F (at 2:00 AM)
Average temperature yesterday: 80 °F

Past Weeks' High & Low Weather Summary

 TemperatureHumidityPressure
High93 °F (Apr 16, 1:00 PM)100% (Apr 15, 12:00 AM)30.04 "Hg (Apr 15, 12:00 AM)
Low73 °F (Apr 12, 5:00 AM)46% (Apr 12, 2:00 PM)29.80 "Hg (Apr 15, 4:00 PM)
Average80 °F80%29.92 "Hg
* Reported Apr 12 5:00 AM — Apr 27 5:00 AM, Cuiabá, Weather by CustomWeather, © 2015

Note: Actual official high and low records may vary slightly from our data, if they occured in-between our weather recording intervals... More about our weather records

Advertising

Cuiabá weather history for previous 24 hours

 ConditionsComfort  
Time TempWeatherWind HumidityBarometerVisibility
5:00 AM
Mon, Apr 27
75 °FClear.2 mph89%29.89 "Hg10 mi
4:00 AM75 °FClear.2 mph94%29.89 "Hg10 mi
3:00 AM75 °FClear.2 mph89%29.92 "Hg10 mi
2:00 AM75 °FClear.5 mph94%29.89 "Hg10 mi
1:00 AM77 °FClear.5 mph83%29.92 "Hg10 mi
12:00 AM75 °FClear.3 mph89%29.92 "Hg10 mi
11:00 PM
Sun, Apr 26
75 °FClear.5 mph94%29.92 "Hg10 mi
10:00 PM75 °FClear.5 mph94%29.92 "Hg10 mi
9:00 PM77 °FClear.12 mph83%29.95 "Hg10 mi
8:00 PM77 °FClear.6 mph83%29.95 "Hg10 mi
7:00 PM75 °FClear.7 mph89%29.89 "Hg10 mi
6:00 PM77 °FPassing clouds.3 mph83%29.89 "HgN/A
5:00 PM79 °FScattered clouds.5 mph79%29.86 "HgN/A
4:00 PM82 °FThunderstorms. Scattered clouds.6 mph74%29.86 "HgN/A
3:00 PM86 °FScattered showers. Scattered clouds.13 mph62%29.83 "HgN/A
2:00 PM91 °FScattered clouds.6 mph59%29.86 "HgN/A
1:00 PM90 °FScattered clouds.6 mph63%29.92 "HgN/A
12:00 PM90 °FScattered clouds.2 mph59%29.92 "HgN/A
11:00 AM88 °FScattered clouds.2 mph66%29.95 "HgN/A
10:00 AM86 °FPassing clouds.3 mph70%29.98 "HgN/A
9:00 AM84 °FPassing clouds.No wind70%29.98 "HgN/A
8:00 AM81 °FPassing clouds.2 mph84%29.98 "HgN/A
7:00 AM77 °FSunny.No wind94%29.98 "Hg10 mi
6:00 AM75 °FSunny.2 mph94%29.95 "Hg10 mi
Weather by CustomWeather, © 2015

See weather overviewHow to use our weather pages